STARLINK-32465, 61716

Orbit data source: Space-Track

STARLINK-32465, 61716 is a payload satellite owned by SpaceX/Seattle (US) in LEO that was launched on Wed, 30 Oct 2024 UTC via an FALCON 9 launch vehicle from the Air Force Eastern Test Range (AFETR). Payloads include a variety of satellites, spacecraft, and rockets equipped with specific instruments for various scientific and technological missions. These include communications satellites like Starlink; space stations such as the ISS; scientific satellites like the Hubble; Earth observation satellites from companies like Planet Labs, Umbra, and HawkEye 360; GPS; miniature CubeSats for education and research; and military/defense satellites.

Loading next visibility...
STARLINK-32465 details
Identifier
61716, 2024-196K
Orbit
LEO
Last TLE update10 hours ago
Origin
Flag of USSpaceX/Seattle (US)
ManufacturerSpaceX/Seattle
MissionOperational spacecraft
Bus & MotorSTARLINK V2M, Unknown motor
Mass730 kg wet, ~700 kg dry
Launch date (UTC)
2024-10-30 (1 month ago)
Launch vehicle
FALCON 9
Launch site
Air Force Eastern Test Range (AFETR)
Object type
Payload
Rocket body
Debris
Shape & HBRUnknown
Radar Cross SectionLarge (>1 m²)

Expand to show TLE details & history

TLE from 10 hours ago
0 STARLINK-32465
1 61716U 24196K   24346.88203780  .00003498  00000-0  97409-4 0  9995
2 61716  53.1623  47.8636 0001639 104.0101 256.1087 15.39620334  7780
Epoch: 2024-12-11T21:10Z
Definitive object data (Epoch: 2024-12-11T21:10:08.065Z)
Latitude0.00002°
Longitude9.25966°
Altitude448.404 km
Speed7.644 km/s
True Right ascension03h 11m 27s
True Declination0° 00' 00"
Sunlit
Object was in full shadow at TLE epoch
Visualization TLE readout
Latitude16.45117°
Longitude174.58097°
Altitude446.809 km
Speed7.647 km/s
Apparent Right ascension15h 39m 26s
Apparent Declination-11° 44' 22"
Sunlit
Object is in daylight
Visualization observer readout
Local Sidereal Time05:37:46
Azimuth51.081° ENE
Elevation-51.592°
Doppler factor1
Orbital elements
Apogee altitude448.607 km
Perigee altitude446.37 km
Semi-major axis6,825.625 km
Eccentricity0.0001639
Inclination53.1623°
RAAN47.8636°
Arg. of periapsis104.0101°
True anomaly256.09047°
Mean anomaly256.1087°
Eccentric anomaly256.09958°
Mean motion3.84884 °/min
BSTAR0.000097409
Orbital period93.53 mins
Loading maneuver chart data...
Loading historical data...
Loading historical data...
Loading historical data...
Loading historical data...
Loading historical data...
Loading historical data...
Loading historical data...

STARLINK-32465 Visibility forecast

Observer location: undefined°, undefined

Span
Click to sort rows by Start time (UTC) header in descending order
Start Az.
Max El. time (UTC)
Max El. Az.
Max El.
End time (UTC)
End Az.
5 mins2024-12-12 08:18:19.493Z275.924° WNW2024-12-12 08:21:19.493Z337.775° N22.502°2024-12-12 08:23:19.493Z20.889° NNE
5 mins2024-12-12 13:14:19.493Z337.353° NNW2024-12-12 13:16:19.493Z42.145° NE31.314°2024-12-12 13:19:19.493Z102.901° ESE
5 mins2024-12-13 06:03:19.493Z183.278° SSW2024-12-13 06:05:19.493Z131.309° SE26.714°2024-12-13 06:08:19.493Z70.027° E
|